Wind_Speed
25 26 27 28 28 28 28 29 30 30 30 31 31 31 31 32 32 31 31 32 32 33 34 36 38 39 37 37 36 36 35 34 32 30 27 25 24 24 25 26 27 28 29 28 27 26 25 23 21 20 18 17 16 15 13 12 10 9 8 7 7 7 6 7 8 7 6 4 5 6 7 9 11 11 12 12 14 17 16 12 12 17 18 20 20
20 21 21 23 24 24 24 24 26 27 28 29 30 29 29 30 31 31 30 31 31 32 33 36 38 38 37 37 37 36 35 35 34 31 29 26 24 24 25 27 29 30 30 30 28 27 25 23 22 20 19 17 16 14 13 12 11 9 9 8 7 7 6 6 6 6 6 6 7 7 8 10 11 11 12 12 15 18 14 12 15 16 18 20 21
18 18 19 19 20 20 21 21 22 24 25 27 27 27 27 28 29 30 30 31 31 32 32 35 37 37 37 37 37 36 35 35 34 32 30 27 26 26 27 29 31 32 31 31 29 27 25 23 22 21 19 18 16 15 13 12 11 9 8 8 8 7 6 6 6 6 6 7 8 9 10 11 11 11 11 11 15 17 12 12 15 16 18 21 21
18 19 19 19 20 21 22 23 23 24 25 26 26 25 25 26 27 28 29 30 31 31 32 34 37 37 37 37 37 37 37 36 34 31 29 28 27 28 29 31 33 32 31 31 30 28 26 24 23 21 20 18 17 16 14 12 11 9 8 8 8 7 6 5 4 4 4 5 8 10 10 10 10 11 10 12 16 15 11 14 16 16 18 22 22
18 19 20 21 22 23 23 23 24 25 26 27 27 26 26 26 27 28 30 31 31 31 31 33 36 37 38 38 38 38 39 37 35 32 30 27 27 30 32 32 33 32 31 31 29 27 26 24 23 22 20 19 18 16 15 13 11 10 9 8 7 6 5 4 3 3 3 6 9 10 9 8 9 10 9 13 17 14 13 17 18 16 20 23 22
15 16 17 17 19 21 21 21 22 23 24 25 26 26 26 26 26 27 30 31 31 31 32 34 35 37 37 38 38 38 39 38 36 34 31 29 29 31 33 34 33 32 31 30 28 26 25 23 23 22 21 19 18 17 15 13 12 11 10 9 7 6 5 4 3 2 3 5 8 10 9 8 9 9 10 14 16 14 16 21 20 18 22 24 23
14 13 13 13 14 17 19 21 21 21 22 23 24 25 26 27 26 26 27 29 30 31 32 34 35 36 38 38 38 38 38 37 35 33 31 30 31 33 34 34 33 32 31 29 27 25 24 23 22 21 20 19 17 16 15 14 12 11 10 9 8 7 6 5 4 3 4 5 7 8 8 8 8 9 11 14 14 12 17 24 24 22 23 24 23
16 15 14 14 15 15 17 19 21 21 21 21 22 24 25 26 27 27 28 28 30 31 32 33 34 35 37 38 39 39 38 37 35 32 30 31 33 35 36 35 34 33 31 29 27 26 24 23 22 21 20 18 17 15 14 13 12 12 11 10 9 8 7 6 5 5 5 7 7 7 7 7 7 8 12 15 15 15 18 22 22 22 22 23 21
15 15 15 15 15 14 15 16 17 19 20 20 20 21 22 22 23 24 25 27 28 30 31 32 33 34 35 36 37 38 38 38 36 33 32 33 35 36 37 36 35 34 32 30 28 27 25 24 23 22 21 19 17 15 14 13 12 11 11 10 10 9 8 7 6 6 7 8 7 5 6 7 7 9 12 14 14 15 19 20 19 19 20 21 18
13 12 12 13 12 12 12 12 13 15 17 18 18 18 19 20 21 22 23 25 27 28 29 29 31 33 34 35 36 38 38 37 35 33 32 34 36 38 37 36 35 34 33 32 30 28 26 25 24 23 21 19 18 16 15 14 13 11 10 9 9 9 8 7 7 8 9 8 5 4 5 7 6 7 10 11 12 15 18 19 19 20 20 20 17
14 12 11 10 10 10 10 10 11 12 13 15 16 16 17 17 18 20 22 23 24 25 26 27 28 31 33 35 37 37 38 36 34 32 32 34 37 40 39 37 36 35 34 33 32 30 29 27 25 24 22 20 19 17 16 15 14 12 11 10 9 9 8 8 9 9 8 7 5 5 6 7 6 6 8 10 12 15 16 16 17 19 19 17 16
15 13 11 10 10 10 11 11 11 12 13 14 15 16 17 17 17 18 19 20 22 22 23 25 26 29 31 33 35 36 37 36 34 32 33 35 38 40 39 38 37 36 34 33 32 31 30 29 27 25 23 21 20 19 18 16 15 13 12 11 10 10 9 8 9 8 7 7 6 6 7 6 5 5 7 9 12 14 14 14 14 15 16 15 14
15 13 11 11 11 11 11 11 11 12 13 14 15 17 17 18 19 19 19 20 20 21 22 23 25 28 31 32 33 34 35 34 33 32 33 36 38 40 39 38 38 36 35 34 33 32 31 30 28 26 24 23 21 20 18 17 16 14 13 12 11 10 10 9 9 8 7 7 7 7 6 5 5 5 6 9 12 13 13 14 13 14 15 15 16
16 14 13 12 12 12 12 12 12 12 13 14 15 16 17 18 19 19 20 20 21 22 22 23 25 28 31 32 32 32 32 32 31 31 33 36 38 39 38 37 37 36 35 34 33 32 31 29 29 27 26 25 23 21 19 18 17 15 14 13 12 11 10 9 8 7 7 8 8 7 6 5 6 7 9 10 10 11 12 14 14 15 16 16 18
18 16 15 14 14 14 13 13 13 13 13 13 14 15 15 16 17 18 18 19 20 21 22 24 25 27 29 31 30 30 30 30 29 31 33 36 37 37 37 36 36 35 35 34 32 31 30 29 28 28 27 25 24 22 20 18 17 15 14 13 12 10 9 8 8 8 8 8 8 7 7 8 9 9 10 10 10 10 12 14 16 16 16 17 19
19 18 17 16 15 15 14 13 13 12 13 13 13 14 14 15 16 16 17 17 18 20 21 23 24 26 28 29 29 29 28 27 28 31 34 36 36 35 35 35 35 35 34 33 32 31 30 29 28 27 26 25 23 21 20 18 17 16 14 12 11 10 9 9 8 9 9 9 9 9 9 9 8 8 8 9 9 11 13 15 15 13 13 16 18
20 20 18 17 15 14 14 13 12 12 12 12 13 13 13 14 15 15 16 16 17 19 20 22 23 25 27 28 27 27 27 26 28 31 35 36 36 36 35 34 34 34 34 33 32 32 30 29 28 27 26 25 23 21 20 19 18 16 14 13 12 12 12 12 11 11 11 11 12 12 11 9 8 8 8 8 8 10 13 14 11 9 11 13 13
19 19 18 16 15 14 13 13 13 13 13 13 13 13 13 14 15 15 15 16 17 18 19 21 22 24 26 27 26 26 26 26 28 32 36 37 37 37 36 35 34 33 33 33 32 32 30 29 28 27 26 24 23 21 21 20 19 17 16 14 15 15 14 14 13 13 13 13 13 12 11 10 9 10 10 9 8 9 11 11 9 8 9 9 9
17 18 18 16 15 14 13 14 13 13 13 13 13 13 14 14 14 14 15 15 16 18 19 20 22 23 24 25 25 25 26 26 29 33 36 37 38 38 37 35 34 33 33 33 32 31 31 30 30 28 26 24 22 21 22 21 19 18 17 16 17 16 14 14 14 13 14 13 13 12 10 10 10 10 11 11 11 11 11 10 8 8 8 8 9
15 16 16 15 15 14 14 14 13 13 13 12 12 12 13 14 15 15 15 15 16 17 18 19 20 20 21 22 23 25 26 26 30 34 36 36 37 37 36 36 36 35 34 33 32 32 32 32 31 29 26 24 23 22 23 22 21 19 18 19 18 16 13 14 15 14 13 13 12 11 10 10 10 10 10 11 11 10 9 7 7 9 9 9 9
14 15 14 14 14 14 14 14 13 13 13 12 12 12 12 13 14 14 15 15 16 16 16 17 18 18 19 21 22 24 26 27 29 33 36 37 37 37 37 37 37 36 35 34 34 34 34 33 32 30 27 25 24 24 24 24 22 21 20 19 18 14 14 15 15 14 14 13 12 12 11 11 10 9 9 10 10 10 9 7 9 11 10 9 9
13 14 14 13 13 13 13 12 12 12 13 13 13 13 13 13 13 13 14 15 16 16 16 17 18 18 19 21 22 24 26 28 29 33 36 38 37 38 38 37 36 36 35 35 35 35 35 34 32 30 29 27 26 26 26 25 23 22 20 19 18 17 17 17 15 15 15 14 13 13 13 12 10 9 10 11 10 10 10 10 11 12 10 10 10
12 13 13 13 13 12 12 12 11 12 12 13 13 13 14 14 13 13 14 15 15 16 16 16 17 17 18 19 21 23 25 26 27 30 34 37 37 37 36 34 34 34 34 35 35 35 35 33 32 31 29 28 27 27 27 26 23 22 21 20 19 18 18 19 17 16 16 15 15 15 14 13 12 11 11 12 12 11 11 12 13 12 11 10 10
12 13 13 13 13 12 11 10 10 11 11 12 12 13 13 13 13 13 13 14 14 14 14 15 15 16 17 18 19 20 22 23 24 26 30 33 35 35 33 31 30 31 31 32 33 33 33 32 32 31 30 28 28 28 28 25 23 21 21 19 18 18 20 21 19 17 17 17 17 17 16 14 13 12 12 12 12 12 13 13 13 11 10 9 9
12 12 12 12 11 11 10 9 9 9 9 10 11 12 12 12 12 12 12 12 13 13 13 14 15 16 17 18 19 20 20 21 22 24 26 30 32 33 33 31 29 29 29 30 30 30 31 31 31 30 29 28 29 28 26 22 20 20 19 17 18 21 23 22 20 19 20 20 20 19 17 15 14 13 13 13 14 14 14 12 10 8 8 9 10
11 11 10 10 9 8 8 8 7 6 7 8 9 10 11 11 11 11 11 12 12 13 13 14 15 16 16 17 18 19 21 22 23 24 25 27 29 31 32 32 31 29 28 28 27 27 28 28 29 29 29 28 28 27 24 21 20 19 18 18 22 25 25 23 22 23 23 22 21 19 16 14 14 14 14 15 15 14 12 10 9 8 8 9 10
12 11 10 9 9 7 7 7 7 6 6 6 7 7 8 9 10 10 11 12 12 13 14 15 16 16 17 18 18 19 21 23 24 25 25 26 27 29 31 31 31 30 28 27 27 26 25 25 25 26 26 25 26 26 25 24 23 22 21 23 26 27 25 23 23 24 23 21 19 17 16 15 16 16 16 16 14 12 10 9 9 10 9 9 11
12 12 11 10 9 8 7 7 7 6 6 5 6 6 7 8 9 9 10 11 12 13 14 16 17 18 18 19 18 18 20 24 26 28 28 27 28 28 29 30 31 31 30 28 27 25 23 22 22 22 22 23 24 26 26 26 27 27 27 27 28 27 24 23 24 25 24 21 18 18 17 18 17 17 16 15 14 12 10 9 10 10 9 9 10
13 12 11 10 10 8 7 6 5 5 6 5 4 4 4 6 8 9 9 9 11 12 13 15 16 18 18 19 19 19 22 25 27 28 28 28 28 28 28 30 31 31 30 29 27 24 22 21 22 23 25 26 27 28 28 29 29 30 30 29 29 27 26 26 27 27 25 23 21 20 20 19 18 17 15 15 14 12 11 11 11 10 10 10 12
15 13 12 11 10 8 8 7 5 4 4 4 4 2 2 3 5 7 8 9 10 11 12 13 14 15 16 18 19 20 22 24 24 23 24 26 27 26 27 27 28 28 28 27 25 24 24 25 27 28 29 30 31 30 31 31 30 30 30 30 29 29 28 29 30 28 26 24 23 22 20 19 18 17 15 15 14 12 12 12 11 12 12 13 14
16 14 12 12 10 9 9 8 6 5 4 3 2 2 2 2 4 5 7 8 10 11 12 14 14 14 14 16 17 19 20 21 21 21 21 23 24 26 26 26 26 26 26 25 25 26 28 29 30 31 31 31 31 31 30 30 30 30 30 30 30 30 31 31 31 29 26 25 24 22 21 20 19 17 16 15 14 13 13 13 12 12 13 13 13
16 14 13 12 10 9 9 8 6 6 5 3 2 1 1 2 4 5 5 6 8 10 12 14 15 16 16 16 17 17 17 18 19 20 20 20 21 23 24 25 25 25 25 25 27 30 31 31 31 31 31 31 31 30 29 29 30 30 30 30 31 32 33 33 31 29 27 26 24 23 22 20 19 18 17 16 15 14 14 14 14 14 14 13 14
15 15 13 12 11 10 9 8 7 6 5 5 4 3 2 2 3 4 5 6 7 7 8 10 13 15 17 18 19 19 18 17 17 18 18 19 20 20 21 23 25 25 25 26 29 30 31 31 31 30 29 30 30 29 28 30 30 30 30 31 32 33 33 32 30 28 27 26 25 23 22 21 19 18 17 17 16 16 15 14 14 13 14 14 14
16 15 14 13 12 12 10 10 9 8 7 6 5 4 4 2 2 3 5 7 8 8 8 8 9 10 12 14 16 18 19 19 19 19 18 18 19 19 19 21 23 24 26 28 29 29 28 29 29 28 28 28 28 28 28 29 29 29 30 32 32 31 30 29 29 28 27 26 25 24 23 21 20 19 18 17 17 16 16 15 15 14 15 15 14
16 16 15 13 13 13 11 11 9 9 8 7 6 5 4 3 2 3 4 5 7 8 9 9 9 10 10 10 10 12 14 17 18 19 19 19 19 18 18 19 21 23 25 28 29 29 28 29 29 29 29 29 29 29 30 30 31 32 33 33 31 30 29 29 30 29 28 27 26 25 24 22 21 20 19 18 18 17 17 16 16 15 15 15 14
16 16 15 13 12 12 11 10 9 8 7 6 5 4 4 2 2 2 3 4 5 7 9 9 9 9 10 10 9 9 10 12 13 15 16 17 17 17 19 22 24 24 26 29 30 31 31 31 31 31 30 30 30 31 32 33 34 34 34 33 32 31 31 31 31 31 29 28 28 27 25 24 23 22 20 19 19 18 18 17 16 16 15 14 14
15 15 14 12 11 10 9 8 7 6 5 5 4 3 3 2 2 2 2 3 4 6 8 9 9 10 10 11 10 10 10 10 11 12 14 14 15 17 21 24 25 25 27 29 30 31 31 32 32 31 31 30 31 31 31 32 33 32 32 32 31 32 32 33 32 31 30 30 29 28 27 26 24 23 21 20 19 19 18 17 17 16 16 14 14
14 14 13 11 10 9 9 8 7 6 6 5 4 4 3 3 3 3 3 4 5 6 8 9 10 10 11 11 11 11 10 9 10 11 13 13 14 18 22 24 26 26 28 29 29 29 30 30 30 30 31 31 31 30 30 31 31 31 31 30 30 31 31 31 31 31 30 30 30 29 28 27 25 23 22 21 20 20 18 17 16 16 15 14 14
14 13 11 10 9 9 8 8 7 7 6 6 5 4 4 4 3 3 3 4 5 7 8 9 10 10 10 10 11 11 11 11 11 12 13 14 15 18 21 23 25 27 28 29 29 29 30 30 29 29 30 31 31 31 32 32 32 31 31 30 30 31 31 32 32 32 32 32 31 30 29 28 26 25 23 22 21 20 19 18 17 17 17 17 16
13 12 11 10 9 9 8 7 7 6 6 5 4 3 3 3 3 3 4 5 7 7 8 9 10 10 10 10 10 10 11 13 14 14 14 15 16 18 20 23 26 27 28 29 29 30 30 31 31 31 31 32 32 33 33 33 32 32 31 30 31 32 33 34 35 35 34 34 33 32 31 29 27 26 25 24 22 20 19 19 19 18 17 17 16
13 12 11 10 10 9 8 8 7 6 5 4 3 3 3 3 4 5 5 6 7 8 9 11 11 11 11 11 11 10 12 15 16 16 17 18 18 19 21 23 26 27 28 29 30 30 31 32 32 32 33 34 34 34 33 33 32 32 31 31 32 33 34 35 35 36 35 35 34 33 32 30 28 27 26 25 22 21 20 19 19 18 17 16 14
12 11 11 10 9 8 8 7 7 6 5 5 4 4 4 4 5 5 6 7 8 9 10 12 12 12 12 11 11 11 13 15 17 18 19 20 21 22 23 25 26 28 29 30 30 31 32 33 34 34 34 35 35 34 34 34 33 33 32 32 33 33 34 35 35 35 35 34 33 32 31 29 28 27 26 24 23 22 21 20 19 18 17 16 15
11 10 10 9 8 8 7 7 6 6 5 5 5 5 5 5 5 6 6 7 8 9 11 12 13 13 13 13 12 13 14 15 16 18 20 21 23 24 26 27 28 28 29 30 31 31 32 33 35 35 36 36 36 36 35 35 34 34 33 33 33 33 34 35 35 35 34 33 32 31 31 29 28 27 26 25 24 23 22 21 20 19 18 17 16
10 9 9 8 8 7 7 6 6 5 5 5 5 5 6 6 7 7 8 8 9 10 11 13 14 15 16 16 16 16 16 16 17 18 19 21 23 25 26 27 28 28 30 31 31 31 32 33 35 36 36 36 35 35 35 35 34 34 33 33 33 33 34 35 36 36 36 34 33 32 31 30 29 28 27 26 26 24 23 22 21 20 19 18 16
9 9 8 7 7 6 6 6 6 5 5 6 6 6 6 6 7 8 9 10 11 12 13 14 15 16 18 18 18 18 18 18 18 19 20 21 23 24 25 26 27 28 29 30 30 30 30 32 33 35 36 36 35 35 35 35 34 34 34 33 34 34 35 35 36 37 37 36 35 34 33 31 30 29 28 28 27 26 25 23 22 21 20 18 17
8 7 7 6 6 5 5 5 5 5 6 6 6 7 7 7 8 9 10 11 12 13 14 15 16 17 18 18 18 18 19 19 20 20 21 22 23 24 25 26 27 28 29 29 29 29 29 30 31 33 34 35 35 35 36 35 35 34 34 34 34 34 34 34 35 37 37 36 36 34 33 32 32 30 29 28 27 26 24 23 22 21 20 18 17
6 6 5 5 5 5 5 5 6 6 7 7 7 8 8 9 10 10 11 12 13 13 15 15 16 17 17 17 18 19 19 20 21 22 22 23 24 25 26 26 27 28 29 29 29 29 29 29 30 31 33 33 34 35 36 36 35 35 35 34 34 34 33 33 35 36 37 36 36 35 34 33 32 31 29 28 27 26 24 23 22 21 20 18 17
5 5 5 4 5 5 5 6 7 7 8 8 9 9 10 11 11 12 12 13 13 14 15 16 16 17 17 18 19 19 20 20 21 22 23 24 24 25 26 26 26 27 28 28 28 28 28 28 29 30 31 31 32 33 35 35 35 34 34 34 34 33 33 33 35 36 36 35 35 35 34 33 32 31 30 29 28 26 25 24 23 21 20 19 17
5 5 5 5 6 6 6 7 8 8 9 9 10 11 11 12 12 13 13 14 14 15 16 16 17 18 18 19 19 19 19 20 21 21 22 23 24 24 25 26 26 27 27 28 28 28 27 27 28 29 30 31 31 31 33 34 34 34 33 33 32 32 32 33 35 36 36 35 35 35 34 33 31 30 29 28 27 26 25 24 23 22 21 19 18
5 5 6 6 6 7 7 8 8 9 9 10 11 12 12 12 13 14 14 15 16 16 17 17 18 18 19 19 19 20 20 20 21 22 22 23 24 24 25 25 25 26 26 27 28 27 27 28 29 30 30 30 30 29 30 32 32 32 32 31 31 31 31 32 34 35 35 35 34 34 33 32 30 29 28 27 26 25 25 24 23 22 21 20 19
6 6 7 7 7 7 8 8 8 9 9 10 11 12 13 14 14 15 15 16 17 17 18 18 18 19 19 19 20 20 21 21 22 22 23 24 24 24 24 24 24 25 25 26 27 27 27 28 28 28 28 28 27 27 28 29 30 30 30 30 30 30 31 31 33 34 35 34 34 33 33 32 30 29 28 27 26 25 24 23 22 21 20 19 18
Wind_Direction
225 227 226 225 225 225 224 223 222 222 221 219 220 221 221 220 218 216 216 217 218 219 220 219 216 213 209 206 205 205 204 204 206 209 212 215 217 219 214 205 200 194 188 186 186 187 187 185 182 181 180 178 176 175 174 174 176 174 175 184 192 195 194 194 211 250 293 317 314 321 332 337 347 356 351 347 344 345 356 2 344 342 355 6 10
223 225 225 223 223 222 221 220 220 221 221 220 221 223 223 221 219 218 217 218 220 221 221 219 216 212 208 206 205 205 206 206 207 209 211 214 215 214 209 201 196 190 186 186 185 186 187 185 181 179 180 180 179 176 177 178 178 180 180 186 198 205 208 213 217 240 280 314 335 344 345 344 351 356 349 340 337 344 356 350 341 348 358 5 10
219 221 221 218 216 217 218 219 220 221 221 221 222 223 223 221 220 220 220 221 222 223 223 220 216 211 207 205 205 205 206 207 206 207 208 211 212 209 205 200 195 191 189 188 186 186 186 184 182 180 180 181 181 179 181 182 183 184 184 189 200 210 219 230 226 233 270 309 335 343 345 349 350 349 343 329 331 344 349 340 344 354 358 4 9
218 220 220 219 219 221 224 226 226 226 225 224 225 225 226 225 223 224 224 223 223 223 223 222 218 212 207 204 204 205 206 205 205 206 207 209 212 208 202 199 196 194 193 190 188 187 187 185 182 182 183 183 183 182 183 186 187 188 191 197 203 213 222 231 235 236 261 296 319 334 343 343 338 341 336 321 329 344 341 339 353 358 357 4 7
213 219 222 224 226 228 231 233 233 233 232 231 231 232 232 231 229 228 227 224 222 222 222 221 217 213 209 206 206 207 206 205 204 205 206 209 212 208 201 198 197 197 196 194 192 190 189 187 184 183 185 185 185 185 186 189 190 190 197 204 206 215 222 227 234 244 266 287 304 322 334 330 329 339 334 322 331 341 339 346 359 359 354 2 6
205 212 219 224 228 230 231 231 231 232 232 232 232 231 231 231 229 227 224 221 221 223 224 222 218 214 211 209 208 208 205 203 204 204 204 206 208 205 200 197 197 197 196 195 194 193 191 188 186 186 188 188 187 187 188 191 194 195 200 206 210 214 218 217 218 243 274 284 292 303 314 322 332 339 329 325 333 340 342 349 357 358 354 357 2
202 205 211 218 224 226 226 228 229 230 232 232 232 232 232 234 234 232 229 225 225 225 224 222 220 217 214 212 211 209 204 202 204 203 204 205 204 200 197 195 195 195 196 195 194 193 191 189 188 189 190 190 190 190 190 193 196 199 202 206 211 212 210 206 210 239 264 270 274 285 301 320 334 330 319 326 338 347 351 351 351 351 351 351 354
211 211 213 217 222 223 221 223 225 228 231 231 230 230 231 232 233 233 232 228 227 227 226 225 221 217 213 212 211 208 204 203 204 203 205 205 202 198 195 193 193 193 193 194 193 193 191 189 191 192 192 193 193 193 195 196 198 201 204 206 209 210 205 203 214 231 240 248 259 276 301 318 328 320 319 337 352 353 351 350 346 343 343 345 351
216 216 219 222 225 229 229 227 224 225 227 228 228 229 229 230 231 231 230 228 227 228 228 226 222 216 211 209 208 206 204 204 205 205 206 204 200 196 194 193 192 191 191 191 192 192 191 191 192 194 194 194 195 196 199 202 204 206 208 206 207 209 207 209 221 226 227 236 251 274 303 312 319 322 329 347 354 342 340 344 342 338 335 339 352
217 218 224 228 230 235 239 239 235 229 227 228 228 228 228 229 230 230 230 228 228 227 226 224 221 216 212 208 206 204 204 204 205 207 209 206 199 195 193 192 192 192 191 189 189 191 192 193 194 195 196 196 196 198 201 204 208 212 213 212 212 213 214 216 221 222 225 235 249 271 292 297 306 321 332 340 336 330 337 344 340 337 338 340 348
213 217 221 223 225 229 231 232 233 231 228 227 228 229 229 229 230 229 228 226 226 226 225 223 219 215 211 208 205 205 205 205 207 209 210 207 201 195 192 192 193 194 193 191 190 191 192 194 196 196 196 197 197 200 203 206 210 213 216 218 220 222 226 225 223 223 228 238 247 251 264 277 291 317 327 327 325 327 337 342 335 336 341 341 337
210 214 215 213 215 220 223 224 224 225 224 223 223 226 229 231 232 231 229 228 227 226 225 223 219 215 211 208 206 206 205 206 208 210 209 207 202 197 194 193 193 193 194 194 193 193 193 195 196 196 197 198 199 202 204 206 209 212 216 220 222 225 230 229 227 230 238 245 247 243 248 261 282 310 319 316 318 324 331 335 332 332 335 331 321
209 211 210 208 212 217 219 220 221 222 222 221 220 221 222 224 226 228 229 229 228 226 225 224 220 216 212 210 209 207 206 206 208 209 208 205 201 199 196 195 194 194 195 196 196 196 196 195 195 196 198 200 202 203 205 207 208 210 213 217 220 223 225 226 229 238 248 251 249 244 242 256 278 297 300 301 311 322 326 325 323 322 323 320 312
205 209 208 206 210 214 216 218 220 221 221 219 220 220 220 221 221 223 225 225 224 224 223 222 220 217 215 213 211 209 209 210 210 209 207 203 200 200 199 197 196 197 197 199 199 199 199 198 197 197 199 201 203 203 205 207 208 209 211 213 216 218 221 225 230 241 250 251 252 249 241 252 270 277 282 291 305 318 317 311 311 314 315 312 307
202 205 206 205 207 211 214 216 217 218 218 218 218 219 220 220 220 221 222 223 223 223 221 220 218 217 215 213 211 211 213 213 211 208 204 200 199 199 199 198 197 198 199 200 202 203 202 201 201 201 201 202 203 203 205 207 208 210 211 213 216 219 224 231 234 243 251 251 253 255 249 255 265 271 283 297 306 308 299 293 298 306 309 308 306
201 202 204 205 207 211 214 215 215 216 217 218 219 221 221 221 220 220 221 221 221 221 220 219 218 215 213 212 211 213 215 214 210 206 202 200 199 199 199 198 198 198 199 201 202 204 205 204 204 205 204 204 204 204 206 208 210 211 213 215 220 226 234 239 239 244 252 253 253 254 253 259 268 274 284 295 295 290 284 285 296 305 306 309 310
202 202 203 205 207 210 214 216 216 217 218 220 222 224 225 224 222 219 218 217 218 219 219 219 218 215 213 212 212 214 217 216 211 205 202 201 200 200 200 199 198 198 200 201 203 205 206 206 207 207 207 206 206 206 207 210 211 213 215 217 222 229 232 232 233 237 244 248 247 249 253 258 265 271 275 273 270 273 275 283 297 303 303 311 314
203 202 202 204 206 209 214 219 220 219 220 222 225 228 228 226 223 219 218 217 218 219 218 217 216 214 213 214 215 218 221 219 213 206 203 203 203 202 201 199 198 198 200 202 204 205 206 208 210 210 209 208 208 207 210 212 213 215 217 218 225 232 229 224 226 231 235 239 240 244 250 257 264 270 272 267 259 263 270 276 284 286 292 302 304
205 203 203 203 206 208 212 219 223 224 225 225 226 229 228 224 220 217 217 218 218 217 214 213 213 213 214 216 218 221 224 221 214 208 205 205 205 203 201 198 197 198 199 201 202 204 206 209 211 212 212 210 210 210 213 216 216 218 220 221 228 234 228 222 225 229 233 236 241 245 250 257 266 270 269 266 262 263 267 268 267 267 272 282 295
206 206 204 202 205 209 211 216 221 226 231 231 229 229 226 222 218 213 211 212 212 212 212 212 214 216 218 220 222 224 225 222 216 210 205 205 206 205 203 201 200 200 200 201 202 203 206 210 212 213 213 212 212 214 217 220 220 221 223 226 233 237 229 223 227 231 235 239 243 246 249 254 263 267 266 267 267 267 269 266 257 255 258 268 283
204 203 201 199 201 206 209 215 221 225 230 231 229 227 225 223 220 214 209 207 206 208 210 213 217 221 224 225 226 226 227 226 221 213 207 207 208 208 208 207 206 205 204 204 205 206 208 210 212 213 213 213 214 216 219 222 223 224 227 232 237 238 231 229 231 233 236 240 242 245 247 250 256 262 266 271 271 268 266 256 247 249 252 261 269
200 198 195 193 197 202 207 213 220 224 226 226 225 223 222 221 220 214 209 208 207 209 213 217 220 223 226 228 228 227 227 227 224 217 211 209 210 212 213 213 212 210 208 206 208 210 213 214 214 213 214 215 216 218 221 223 223 225 230 234 235 234 232 232 232 233 238 242 242 244 246 247 251 258 262 267 269 268 264 255 249 250 252 255 258
191 191 189 190 193 198 204 211 217 221 222 222 221 220 218 216 215 212 211 211 211 212 216 219 221 222 224 225 226 225 225 225 223 220 215 212 211 213 215 215 214 214 213 213 214 216 218 218 217 215 216 217 219 221 222 222 223 226 230 233 231 230 232 232 230 232 238 241 242 244 246 247 250 253 255 258 261 262 258 253 254 255 256 259 262
181 179 181 183 186 191 197 204 211 216 218 217 216 216 215 214 214 215 215 215 215 215 218 220 220 220 223 223 222 222 222 223 224 223 220 216 214 213 214 216 217 218 220 222 223 224 223 222 220 219 218 220 222 224 223 221 221 224 228 230 226 223 229 232 230 230 234 237 239 244 246 248 251 252 252 253 255 257 256 255 258 261 266 277 284
172 169 170 173 176 181 185 192 203 209 213 215 213 214 215 214 214 216 217 217 217 216 218 219 219 220 222 223 222 221 222 223 225 224 223 221 218 216 216 218 221 223 225 226 228 230 229 227 224 222 221 224 224 223 221 220 219 222 224 224 222 223 229 233 230 228 232 235 239 244 248 250 252 252 251 250 250 254 258 259 258 259 266 279 283
157 155 157 158 161 168 169 172 184 191 198 206 211 216 219 216 214 215 213 214 217 217 218 219 219 220 224 226 225 224 224 225 227 227 227 225 223 221 220 221 223 226 229 229 230 232 234 232 228 224 223 223 221 220 221 220 218 220 222 221 223 228 232 233 232 231 234 237 240 244 248 248 248 248 248 249 251 252 253 252 253 255 261 271 276
140 139 139 138 140 147 151 154 161 168 178 191 201 211 219 218 216 216 213 213 215 216 218 220 221 222 226 228 229 229 229 229 229 229 229 228 227 226 224 224 226 228 230 230 230 232 234 234 231 228 224 220 218 219 223 222 218 218 221 222 225 230 233 235 237 239 242 242 243 245 245 242 242 244 246 250 252 250 242 240 247 254 259 268 277
127 125 124 126 128 130 135 141 150 157 164 177 194 207 216 218 220 224 227 227 226 225 225 227 229 231 232 232 231 229 230 232 233 233 233 232 231 229 226 226 227 228 229 230 229 230 233 232 230 228 222 216 216 219 221 221 220 220 222 224 227 232 235 236 238 240 243 243 241 241 239 239 241 244 246 247 246 241 233 232 240 252 260 266 272
119 116 116 120 121 121 124 126 135 148 155 162 180 207 225 227 228 236 243 246 245 243 244 245 246 247 245 242 238 234 235 241 243 241 238 236 235 233 231 229 229 229 230 230 229 227 227 226 224 222 217 215 216 217 219 220 221 222 225 228 231 234 235 235 236 238 239 239 238 237 237 239 241 241 241 241 238 233 227 226 230 241 250 256 262
118 115 117 119 119 120 123 123 120 125 140 159 175 194 239 250 250 252 256 258 257 253 254 258 262 264 262 258 254 250 252 258 259 254 248 244 242 241 239 236 234 231 230 230 228 225 224 223 222 220 218 217 216 216 218 219 220 223 226 230 233 234 234 235 236 238 239 238 238 238 237 238 238 236 234 234 233 228 223 222 228 236 241 250 259
119 118 119 120 120 121 124 127 123 114 117 142 170 194 246 277 287 280 275 273 269 263 260 261 262 264 267 268 266 263 262 265 268 266 262 256 250 247 245 242 238 235 232 230 227 225 224 224 223 222 221 220 220 220 220 221 223 226 229 231 233 234 234 235 237 237 236 236 236 236 235 235 235 233 231 230 229 226 222 219 223 234 242 248 256
118 117 119 120 120 118 117 122 123 117 112 114 115 113 327 335 341 334 320 304 290 279 273 270 266 265 265 266 267 267 266 266 269 270 269 266 260 255 251 247 243 240 236 232 229 228 227 227 227 227 225 225 225 225 225 225 228 230 231 232 233 234 235 236 237 236 234 234 234 233 233 233 233 232 229 226 225 225 223 220 220 228 238 244 249
114 114 118 120 118 115 114 116 116 115 111 107 102 93 71 36 7 352 343 334 325 315 301 291 284 277 272 269 268 268 267 267 268 270 270 269 266 262 257 252 247 243 237 231 229 231 231 231 233 233 230 231 231 230 230 231 232 233 234 235 238 238 237 237 236 235 233 233 233 233 233 232 230 229 226 224 224 224 224 222 221 224 232 241 248
115 115 118 120 119 116 114 114 114 111 108 104 99 94 87 71 29 343 332 330 331 330 325 320 313 303 292 285 279 274 272 269 267 267 268 268 268 267 262 255 248 242 237 233 233 235 237 238 239 239 238 238 237 236 236 237 236 237 239 240 241 242 239 235 234 233 232 231 231 231 231 229 227 225 224 223 223 224 223 221 219 220 226 236 245
118 118 118 119 119 116 115 115 115 111 108 104 99 94 87 69 41 13 349 336 327 321 319 320 319 315 312 307 297 288 282 276 272 269 267 266 267 266 258 246 237 234 233 235 238 240 242 243 245 245 244 243 242 240 240 240 240 240 241 241 240 239 236 233 232 231 230 228 229 229 228 227 226 225 224 222 220 221 221 219 218 221 227 234 240
120 120 119 118 117 116 114 113 111 107 104 100 94 91 85 65 40 15 347 330 321 318 319 320 317 312 311 312 309 303 295 287 281 276 272 268 266 258 244 237 234 233 234 235 238 242 244 245 246 246 246 245 244 243 242 242 242 242 242 240 238 236 234 232 230 228 227 226 227 227 225 224 223 222 221 221 220 219 221 221 218 219 224 229 236
118 117 115 113 112 111 109 105 101 97 92 87 80 76 70 54 31 6 341 327 320 315 313 314 314 311 311 312 314 312 306 298 288 277 269 265 258 247 241 240 241 240 240 241 242 244 246 247 248 248 248 248 248 248 247 246 245 245 244 243 241 238 236 233 230 228 226 225 224 223 221 221 221 219 218 219 219 219 220 219 216 218 222 226 232
111 109 109 108 106 104 100 95 91 86 79 73 64 55 50 43 27 11 352 338 326 315 312 313 314 313 313 315 317 314 309 301 289 277 268 259 248 242 242 244 245 245 247 249 249 250 251 253 252 252 252 251 251 251 251 250 249 248 247 245 243 239 237 234 231 229 227 225 223 221 220 219 220 219 218 218 219 218 217 215 214 216 217 219 224
97 95 94 92 89 85 82 80 78 74 69 64 54 41 35 29 15 358 339 326 318 313 312 312 310 309 311 312 313 312 304 293 285 281 276 268 259 251 247 247 248 249 252 254 255 255 256 257 257 256 255 254 253 252 252 252 251 250 248 246 243 239 235 231 229 226 225 224 222 221 220 219 218 218 218 219 219 218 214 211 210 213 216 218 222
89 87 85 82 80 77 75 75 73 67 61 57 46 30 22 12 352 334 321 314 309 306 304 301 299 300 300 299 301 302 295 288 285 284 280 276 271 264 257 253 252 253 255 257 258 258 259 259 259 258 258 257 256 255 254 253 252 251 249 246 243 239 236 232 228 226 224 223 221 219 219 218 217 215 216 218 219 218 215 211 210 212 217 221 223
86 85 83 80 79 78 76 75 72 67 62 57 44 28 15 356 335 324 317 310 305 301 298 295 295 297 297 294 292 289 283 282 283 283 281 278 275 272 267 262 260 259 260 261 261 261 261 262 262 261 261 260 259 258 256 254 252 251 249 247 245 242 238 233 229 227 225 223 220 218 218 217 215 214 215 216 217 216 215 213 212 211 214 217 220
85 84 83 80 78 76 73 70 67 62 57 49 36 21 4 346 332 322 312 305 302 300 299 299 302 304 302 300 296 288 280 279 280 280 281 280 278 275 272 269 267 266 265 266 266 266 266 266 266 265 264 263 262 260 257 255 254 252 251 249 246 243 239 235 231 228 225 222 219 218 217 216 216 216 216 216 216 214 211 211 211 210 210 212 214
87 85 84 83 80 76 72 66 58 51 42 30 19 7 352 343 338 329 319 314 310 307 306 308 311 312 312 311 308 301 293 289 286 285 284 283 282 280 277 275 274 272 272 271 271 272 273 273 272 271 269 267 266 264 261 260 258 256 253 251 249 246 242 237 232 227 224 221 219 218 217 216 215 215 214 213 212 211 210 210 209 208 209 210 210
87 84 82 79 74 68 62 53 44 35 23 12 5 359 349 343 338 331 324 320 317 314 312 313 315 316 316 316 316 312 307 303 299 294 290 288 286 284 283 282 281 280 279 278 277 277 277 276 276 275 273 271 269 267 265 263 262 259 257 254 251 248 244 239 234 230 226 222 219 217 216 214 213 213 212 211 209 209 209 210 208 207 208 209 209
80 78 74 68 61 53 43 31 22 14 5 358 352 347 341 333 326 323 320 317 316 315 313 313 313 313 313 315 315 313 310 308 304 299 295 293 291 289 288 288 287 286 284 284 283 282 280 279 278 278 277 275 272 270 267 265 263 262 260 258 255 253 250 247 242 237 230 224 220 216 214 213 212 212 211 210 209 209 210 210 209 207 207 208 209
68 64 59 51 44 35 23 13 4 356 351 345 337 334 332 326 321 318 315 313 311 310 308 308 309 309 310 311 311 309 308 306 304 301 300 298 297 296 295 293 291 289 288 287 285 284 282 281 280 279 279 278 276 273 270 267 265 264 263 261 259 258 257 254 247 239 231 226 222 218 215 213 212 211 211 210 209 209 209 209 209 209 208 209 212
57 51 45 36 27 17 5 355 348 342 338 335 331 328 326 322 317 314 311 309 307 306 305 306 308 309 309 308 307 306 305 304 303 302 302 302 301 301 300 298 297 296 294 293 291 289 287 284 282 281 280 280 279 276 273 270 268 266 265 264 262 259 257 252 246 239 233 229 224 220 217 214 212 211 211 210 208 208 208 207 208 210 210 210 212
41 35 26 16 8 359 348 342 338 333 329 326 323 318 315 313 311 310 310 309 307 306 306 307 308 307 307 306 305 304 304 304 303 302 302 302 302 302 302 302 301 300 298 297 296 295 292 289 286 285 284 284 282 279 276 273 271 269 267 265 263 260 257 252 245 239 233 229 224 220 218 216 213 211 210 208 207 208 207 206 207 208 208 209 210
21 18 11 1 356 349 340 334 330 325 322 320 316 314 314 313 312 311 311 309 307 306 306 305 305 305 304 304 305 305 305 303 302 301 301 301 302 303 303 302 302 301 299 298 297 297 296 294 291 288 288 287 285 282 279 276 273 271 268 266 265 262 258 252 245 238 232 227 222 218 216 215 213 212 211 209 208 208 207 207 208 207 207 208 208
5 3 358 351 347 341 332 326 322 320 318 316 314 314 315 314 312 312 311 308 306 305 304 304 304 305 304 304 305 305 303 301 301 300 301 301 303 303 303 303 302 302 300 299 299 299 298 296 293 292 291 290 288 284 281 278 275 273 271 269 267 263 258 251 243 235 229 224 219 215 213 212 211 210 210 209 208 207 206 206 206 206 206 207 207
352 349 344 340 337 331 324 320 319 317 315 313 311 311 310 308 308 308 307 305 304 304 305 305 305 305 304 304 303 302 301 301 301 301 301 302 303 305 305 305 304 304 303 302 302 302 301 300 299 298 296 294 290 286 283 280 277 275 273 271 267 263 257 249 239 231 226 222 218 215 213 211 210 209 209 208 207 207 206 205 205 204 204 206 205
Height
769 771 772 773 775 776 778 779 781 783 784 785 786 787 789 790 791 793 795 797 799 801 803 805 806 807 809 810 812 814 816 818 821 822 825 827 828 829 830 831 834 835 836 838 840 841 843 844 846 848 850 852 853 854 855 856 857 857 858 859 859 860 860 861 861 861 860 860 860 860 860 859 859 858 857 856 855 854 853 852 851 850 847 845 843
768 769 770 772 773 774 776 777 779 780 781 783 784 785 786 788 789 791 793 794 796 798 800 802 803 805 806 807 809 812 814 816 818 819 821 824 826 827 829 830 832 834 834 836 838 840 841 843 845 847 849 850 852 853 854 855 855 856 856 857 858 858 859 859 860 859 858 858 858 858 858 857 857 856 855 854 853 852 851 851 850 848 846 844 841
766 767 768 769 770 772 774 775 777 778 779 780 782 783 785 786 788 789 790 792 794 796 798 799 801 802 803 805 806 809 811 813 815 815 817 820 823 825 827 828 830 832 833 834 836 838 839 841 843 845 847 849 850 851 852 853 854 854 855 856 856 856 857 857 858 857 856 856 856 856 856 856 855 855 854 853 852 851 850 850 848 846 844 843 841
762 763 764 766 767 769 771 773 775 776 777 779 780 782 784 785 786 788 789 791 792 794 796 797 798 799 800 802 803 806 808 809 812 814 815 816 819 822 824 826 828 830 831 832 834 835 837 839 841 843 845 847 848 849 851 852 852 852 853 854 854 855 855 855 855 855 855 854 854 855 855 854 854 853 852 851 851 850 849 848 846 844 843 841 840
759 760 762 763 765 766 768 770 772 774 776 777 779 781 783 784 785 786 787 789 790 792 793 794 795 796 797 799 800 802 804 806 808 810 812 813 816 819 820 823 825 828 829 831 832 834 835 837 839 841 843 845 846 847 849 850 850 850 851 852 852 853 853 853 853 853 853 853 853 853 853 853 852 852 851 850 849 849 847 846 844 842 841 840 839
758 759 760 761 763 765 767 769 771 772 774 776 778 779 781 782 783 784 785 786 788 789 790 791 792 793 795 796 798 799 801 803 804 806 808 810 813 816 818 820 822 825 828 829 831 833 834 836 837 839 841 842 844 845 847 848 848 848 849 850 850 851 851 851 851 851 851 851 852 852 852 851 850 850 850 849 847 846 844 842 841 841 840 838 837
758 759 759 760 762 763 764 766 768 770 772 773 775 777 778 780 781 782 783 784 786 787 788 789 790 791 792 793 794 796 798 800 802 804 805 807 810 813 815 817 820 823 825 828 829 831 833 834 836 837 839 841 842 843 844 845 846 846 847 848 848 849 849 850 849 849 849 850 851 851 850 849 849 849 849 848 846 844 841 839 838 838 838 837 836
757 758 758 759 760 761 763 764 765 767 769 770 772 773 775 777 778 780 782 782 784 785 786 787 787 788 789 790 791 793 795 798 800 801 802 804 807 809 811 813 816 820 823 826 828 829 831 833 834 836 837 839 840 841 842 843 844 844 845 846 846 847 847 847 847 847 848 849 849 848 847 847 847 848 847 845 843 841 840 838 837 837 837 836 835
755 756 757 758 759 760 761 763 764 765 766 767 769 770 772 774 775 777 779 780 781 782 783 784 785 786 787 789 789 790 792 794 796 798 800 802 804 806 809 811 813 817 820 823 825 827 829 831 832 834 836 837 838 839 840 841 842 842 843 843 844 844 845 845 845 845 846 847 847 846 845 846 846 846 845 843 841 840 839 838 838 837 836 835 834
752 754 755 757 758 760 761 762 763 764 764 766 767 768 769 771 772 774 776 777 779 780 781 782 783 784 785 787 788 789 790 792 794 796 797 799 801 804 806 809 811 814 817 819 822 825 826 828 830 832 834 835 836 837 838 839 840 840 841 841 841 842 842 842 843 844 844 844 844 843 844 845 845 845 843 841 840 839 838 838 837 836 834 832 831
750 752 754 755 757 758 760 761 762 763 764 765 766 767 768 769 770 772 773 775 776 778 779 780 782 784 785 786 787 787 788 790 792 795 797 799 800 801 803 806 809 812 814 816 819 821 824 826 828 830 831 833 834 835 836 837 837 838 839 839 840 840 840 840 841 842 842 842 842 842 843 844 843 843 841 840 839 838 838 838 837 835 833 831 830
749 751 752 754 755 757 758 759 760 761 762 764 765 766 768 769 770 771 772 773 775 776 778 779 781 783 784 785 786 787 788 789 790 792 794 797 799 800 801 803 806 809 812 814 816 818 821 823 826 828 829 830 832 833 834 835 835 836 837 837 838 838 838 839 839 840 840 840 840 841 842 842 841 840 840 839 838 838 837 837 837 836 834 833 831
748 749 751 753 753 755 756 757 758 759 760 762 763 764 766 767 768 769 770 772 773 774 776 777 779 781 783 784 785 786 787 788 789 790 792 795 797 799 800 801 803 807 809 812 814 816 818 821 823 825 827 828 829 831 832 833 833 834 835 835 836 836 837 837 838 838 838 838 838 839 840 839 839 838 838 837 837 837 837 837 837 836 835 833 832
746 747 749 750 751 753 754 755 756 757 758 759 760 761 763 764 765 767 768 769 771 772 774 775 777 779 780 782 784 785 786 788 789 790 792 794 796 798 800 801 802 805 807 810 812 814 816 818 820 822 824 825 827 828 829 831 831 832 833 833 834 834 835 835 835 836 836 836 837 837 837 837 837 836 836 836 836 837 837 836 835 835 834 833 832
744 745 746 748 749 751 752 753 754 755 756 758 759 760 761 762 763 764 765 767 768 770 772 773 775 777 778 780 782 784 785 787 788 790 792 794 796 798 799 800 802 804 806 808 810 812 815 817 818 820 821 823 824 826 827 828 829 830 831 831 832 832 833 833 833 833 834 834 834 835 835 835 835 835 835 835 835 836 836 835 834 833 832 831 830
741 743 744 745 747 749 750 752 754 755 756 758 758 760 761 761 762 763 764 766 767 769 770 772 774 776 777 779 781 782 784 786 788 789 792 794 796 797 799 800 801 802 804 806 809 811 813 815 816 818 819 821 822 824 825 826 827 828 828 829 830 830 830 831 831 831 832 832 832 833 833 833 833 833 833 834 834 834 833 833 833 832 831 830 829
739 740 742 744 746 748 750 752 753 755 756 758 759 760 761 761 762 763 764 765 766 768 769 771 773 775 777 778 780 782 784 785 787 789 791 793 794 795 797 798 799 800 802 804 807 808 811 813 814 816 817 819 820 822 823 824 824 825 826 827 828 828 828 829 829 829 830 830 830 831 831 831 831 831 831 832 832 832 831 831 831 831 831 830 828
738 739 740 742 744 747 749 751 752 754 755 756 758 759 760 761 761 762 763 764 765 767 768 770 772 774 776 777 779 781 782 784 785 787 789 791 791 792 794 796 797 799 801 802 804 807 809 811 812 813 815 817 819 820 821 821 822 823 824 824 825 825 826 827 827 827 828 828 828 828 828 828 828 828 829 829 829 829 829 829 829 829 830 830 828
737 738 739 741 743 745 747 749 751 753 754 755 756 757 758 759 760 761 762 763 764 766 767 769 771 773 775 777 778 780 781 783 784 786 788 789 790 790 792 793 795 797 798 800 802 805 807 808 809 811 813 815 817 818 818 819 819 820 821 822 822 822 823 824 824 825 825 826 826 826 826 826 826 826 826 827 827 827 826 827 827 828 828 829 828
736 738 738 740 742 744 746 748 750 752 753 755 755 756 757 758 759 760 761 762 764 765 767 769 770 772 774 776 777 778 780 781 783 785 786 788 789 790 790 791 792 794 795 798 800 802 804 805 807 809 811 813 814 815 816 816 817 818 818 818 819 820 821 822 822 822 823 823 823 824 823 824 824 824 824 824 824 824 824 824 825 825 826 826 826
737 738 738 739 741 743 745 747 749 751 753 755 756 757 757 758 759 759 760 761 763 764 766 768 770 772 773 774 776 777 778 780 781 783 784 786 787 788 789 789 790 791 793 795 797 798 800 802 804 806 808 810 812 813 813 814 814 815 815 816 817 818 819 819 819 820 820 820 821 821 821 821 821 821 822 822 822 822 822 822 823 823 823 823 823
737 738 738 738 740 742 744 747 748 750 752 754 755 757 757 758 759 759 760 761 762 764 765 767 768 770 771 772 773 774 776 777 778 780 782 783 785 786 787 788 789 791 792 793 795 796 798 799 801 804 806 807 809 810 810 811 811 811 812 814 815 815 816 817 817 817 817 818 818 818 818 819 818 818 819 819 820 820 819 820 821 821 820 820 820
737 737 737 738 740 741 743 746 747 749 751 753 755 756 757 758 759 760 760 761 762 764 765 766 768 769 770 772 773 774 775 776 777 779 780 782 784 785 787 788 789 790 791 792 793 795 796 798 800 802 804 805 806 807 808 809 809 809 810 811 813 813 813 814 815 815 815 815 816 816 816 816 815 815 816 817 817 817 817 818 818 818 818 818 818
735 736 736 737 739 740 742 744 747 749 751 753 755 756 757 759 760 761 762 762 763 765 766 767 768 769 771 772 773 774 775 776 777 779 780 782 784 785 787 788 789 790 791 792 793 794 795 797 799 800 802 803 804 805 806 806 807 808 808 810 811 811 811 811 812 812 812 813 813 813 813 813 813 813 813 814 815 815 815 816 816 816 816 816 816
735 735 736 737 738 740 742 744 746 748 751 753 754 756 757 759 760 761 762 763 764 765 766 767 769 770 771 771 772 774 775 776 777 779 780 782 783 785 786 787 789 790 791 792 793 794 795 796 798 799 800 801 802 803 803 804 805 806 807 808 809 809 809 809 810 809 808 808 809 809 810 811 811 811 812 812 812 812 813 813 814 814 814 814 814
736 737 738 738 740 741 743 745 747 749 751 753 755 756 757 758 760 761 762 763 764 765 766 767 768 770 770 771 772 773 774 775 776 778 779 780 782 784 785 786 788 789 790 791 792 793 794 795 796 797 798 799 800 800 801 803 804 805 805 806 805 805 806 808 808 806 804 804 806 807 807 808 809 809 810 810 810 810 810 811 811 812 812 811 811
737 738 739 740 741 743 744 746 748 750 752 754 755 757 758 759 760 761 762 763 764 765 766 767 768 769 770 771 772 772 773 774 775 776 777 779 780 782 783 785 786 787 788 789 791 791 792 793 794 795 796 797 798 798 798 800 801 801 801 801 801 802 803 805 805 805 803 803 803 804 805 805 806 806 807 808 808 808 808 808 809 810 810 810 809
738 740 741 742 743 744 746 748 749 751 753 754 755 757 758 759 760 761 762 764 764 765 766 767 767 768 769 770 771 771 772 772 772 773 775 776 778 779 781 782 784 785 786 787 788 789 790 791 792 793 794 794 794 794 794 795 796 796 796 797 797 798 800 801 802 802 802 801 801 802 802 802 803 803 804 805 805 805 806 806 807 808 808 808 808
739 741 742 744 745 747 748 750 751 752 754 755 756 758 759 760 761 762 763 764 765 766 767 767 768 769 769 770 771 771 771 771 771 772 774 775 776 777 778 779 781 782 783 785 786 787 788 789 789 789 789 790 789 789 789 790 791 792 792 792 793 795 796 797 797 797 798 798 798 799 799 800 800 801 801 802 802 803 803 804 805 806 807 807 807
739 741 742 744 746 747 749 751 752 754 755 757 758 759 760 761 762 763 764 765 765 766 767 768 769 769 770 770 771 771 771 772 772 773 774 775 775 776 777 778 779 780 781 783 784 785 785 785 784 784 784 784 784 784 785 786 787 788 789 789 790 791 792 793 793 794 795 796 796 796 797 798 798 798 799 799 800 800 801 802 803 804 804 804 804
738 740 742 743 745 746 749 750 752 754 756 757 758 760 761 762 763 763 764 765 766 766 767 768 768 769 769 770 770 771 772 772 773 773 774 774 775 776 776 777 778 779 780 781 782 782 781 780 780 780 780 780 780 780 782 783 784 785 786 786 787 787 788 788 789 790 792 793 793 794 795 795 796 796 796 797 797 798 799 799 800 801 802 802 802
739 740 742 744 745 747 748 749 751 753 754 756 757 759 760 761 762 763 764 764 765 766 766 767 768 768 769 769 770 770 771 771 772 773 773 774 774 775 776 776 777 778 779 779 778 777 777 777 776 776 777 777 777 779 780 781 782 783 783 783 783 783 783 784 785 787 789 789 791 791 792 792 793 794 794 794 795 795 796 797 798 799 799 800 800
740 741 743 744 746 747 748 749 751 752 753 754 756 757 758 759 760 762 763 763 764 765 765 766 766 767 767 768 769 769 770 770 771 771 772 773 773 774 775 775 776 776 777 776 774 774 774 774 774 774 775 775 775 777 778 779 779 780 780 780 780 779 781 782 783 785 786 787 788 789 789 790 791 791 791 792 792 793 793 794 795 796 796 797 797
741 742 743 744 746 747 748 749 750 751 752 753 754 755 756 757 758 759 760 761 762 763 764 765 765 765 765 766 766 767 768 768 769 769 770 771 772 773 773 774 774 774 774 773 772 772 772 772 772 772 773 774 774 776 777 777 778 779 778 778 778 778 779 780 781 781 782 784 785 786 786 787 788 788 789 789 789 790 791 791 792 793 794 794 794
741 742 744 745 745 746 747 748 749 750 751 752 753 754 755 755 756 758 758 759 760 761 762 762 763 763 764 764 764 765 765 766 766 767 767 768 769 771 772 772 772 772 772 771 770 770 770 770 770 770 771 772 772 773 774 774 775 775 775 775 775 775 776 776 777 778 779 780 781 782 783 784 784 785 786 786 786 787 787 788 790 790 791 792 792
741 743 744 745 746 747 748 749 749 750 751 751 752 753 754 754 756 757 757 758 759 759 760 760 761 761 762 762 762 763 763 763 764 764 765 765 767 768 768 768 768 768 768 767 767 766 766 766 766 767 768 768 768 769 769 769 769 769 770 770 771 771 771 771 772 773 774 775 777 778 779 780 781 781 782 783 783 784 784 785 786 787 788 789 790
742 743 744 746 747 747 748 749 750 750 751 752 752 753 753 754 755 756 756 758 758 758 759 759 759 760 760 760 761 761 761 761 762 762 762 763 764 764 764 764 764 765 764 763 763 763 762 762 763 763 764 764 765 765 765 766 766 767 767 768 768 767 767 767 768 769 770 771 772 773 774 775 776 778 779 779 780 781 781 782 783 784 786 787 787
742 743 745 746 747 747 748 749 750 751 752 752 753 754 754 755 755 755 756 757 757 758 758 758 759 759 759 759 760 759 759 760 760 760 760 761 761 761 761 761 761 761 760 760 761 760 759 759 760 760 761 761 762 762 762 762 763 764 764 765 765 765 765 765 766 767 767 768 768 769 770 771 772 774 775 775 776 777 778 779 781 782 783 784 785
742 743 745 746 747 747 748 749 750 751 752 753 754 754 755 755 756 756 756 757 757 757 758 758 759 759 759 759 759 759 758 758 758 758 759 759 759 759 759 759 759 758 758 757 758 758 757 757 757 757 757 757 758 758 758 758 759 759 760 761 761 761 761 761 761 762 762 763 764 765 766 767 768 770 771 772 773 774 775 776 778 779 780 781 782
743 744 746 746 747 748 749 750 751 751 752 753 754 754 755 756 756 756 756 757 757 757 757 758 758 759 759 759 759 758 758 757 756 756 757 757 757 757 757 756 756 755 755 755 755 754 754 753 753 753 753 753 753 753 753 754 754 755 755 755 755 755 755 755 755 755 756 757 758 760 761 762 764 766 767 768 770 771 772 773 775 776 777 778 779
744 745 746 747 748 749 750 751 751 752 753 753 754 754 755 756 756 756 756 756 756 756 757 757 757 757 757 757 757 757 756 755 755 755 754 754 754 754 754 754 753 753 752 752 751 751 750 749 749 749 748 748 748 748 748 749 749 749 750 750 750 750 750 750 751 751 751 752 754 755 756 758 760 762 763 765 767 769 770 771 772 773 774 775 776
745 745 746 748 749 749 751 752 752 752 753 753 753 754 755 755 755 756 755 755 755 755 755 755 755 755 755 755 755 755 754 753 753 752 752 752 752 751 751 751 751 750 750 749 749 748 747 746 745 745 744 744 744 744 744 744 744 745 745 745 745 745 746 746 747 748 748 749 750 751 753 755 757 758 760 762 764 765 766 768 769 770 771 772 774
745 746 747 748 749 749 750 751 751 752 752 753 753 754 754 754 755 755 754 754 754 754 753 753 753 752 753 753 753 752 752 751 751 750 749 749 749 749 748 749 748 748 748 747 746 746 745 743 742 741 740 740 740 740 739 740 740 741 741 741 741 741 742 742 743 744 745 746 747 749 750 752 753 755 757 759 760 762 763 764 766 767 768 770 771
745 746 747 748 748 749 749 750 750 751 751 752 752 753 753 753 753 753 753 753 753 752 752 751 751 750 750 750 750 749 749 748 748 748 747 747 747 746 746 746 746 745 744 744 743 743 742 740 739 738 737 736 736 736 736 736 736 737 737 737 737 737 737 738 739 740 741 743 744 745 747 748 750 751 753 755 756 758 760 761 762 764 765 766 768
745 746 747 747 748 749 749 749 750 750 750 751 751 751 752 752 752 752 752 752 751 751 750 750 749 749 748 748 747 747 747 746 746 746 746 745 745 744 744 743 743 742 741 740 740 739 738 737 736 734 733 733 733 733 732 732 732 732 732 733 732 732 732 733 734 735 737 738 739 740 742 744 745 747 749 750 752 754 756 757 759 760 762 763 764
745 746 746 747 747 748 748 749 749 749 749 750 750 750 750 750 750 750 750 750 749 749 748 748 747 747 746 746 746 745 745 745 744 744 743 743 742 741 741 740 739 738 737 736 736 735 734 733 732 731 730 729 729 729 728 728 728 728 728 728 728 727 728 729 730 731 732 734 735 736 738 739 741 743 745 747 748 750 752 754 756 757 759 760 761
745 745 746 746 747 747 748 748 748 748 748 748 748 748 748 748 748 748 748 748 748 747 746 746 745 745 744 744 744 743 743 743 742 741 741 740 739 739 738 737 736 735 733 732 731 731 730 729 728 727 726 726 725 725 724 724 724 724 724 724 724 724 724 725 726 727 728 730 731 733 734 735 737 739 741 743 745 747 749 751 752 754 756 757 759
745 745 745 746 746 746 746 746 747 747 747 747 747 746 746 746 746 746 746 746 745 745 744 744 743 743 742 742 741 741 741 740 739 739 738 737 737 736 735 734 732 731 730 728 728 727 726 725 725 724 723 722 721 721 720 719 719 719 719 719 720 720 720 721 722 722 724 726 728 729 730 732 733 735 737 739 741 743 745 747 749 751 753 755 756
744 744 744 745 745 745 745 745 745 745 745 745 745 745 745 745 744 744 744 744 743 743 743 742 741 740 740 739 738 738 738 737 736 736 735 734 734 733 732 731 730 728 727 725 724 723 723 722 721 720 719 718 717 716 716 715 715 715 715 715 716 716 717 717 717 719 721 722 724 725 727 728 730 732 733 735 738 740 742 744 746 748 750 752 753
743 743 743 743 743 743 744 744 744 744 744 744 743 743 743 743 743 743 743 742 742 741 741 740 739 738 738 737 736 736 735 734 734 733 732 731 730 729 728 727 726 725 723 722 721 720 719 718 717 716 715 714 713 712 712 711 711 711 711 711 712 712 713 713 714 715 717 719 720 722 723 725 727 729 731 733 735 736 738 741 743 745 747 749 750
742 742 742 742 742 742 742 742 742 743 742 742 742 742 741 741 741 741 741 741 740 740 739 738 737 736 735 735 734 734 732 732 731 730 729 728 727 726 725 724 722 721 720 719 717 716 715 714 713 711 710 709 708 708 708 707 707 707 707 707 708 708 709 710 711 713 714 716 718 719 721 722 724 726 728 730 732 734 736 738 740 743 744 746 748